Bermuda/L.F. Wade International Airport

Airport
ICAO code: 
TXKF
IATA Code: 
BDA
Summary
ICAO Region: 
NAT
Territory: 
Location: 
St. George's, Bermuda
Serving: 
Hamilton
Elevation: 
16 ft
Coordinates: 
Aerial View: 
32° 21' 50" N, 64° 40' 43" W
Airport RE: 
Crosswind Landings
Metar
Observation
TXKF 200955Z 14002KT 9999 SCT058 BKN068 BKN300 17/13 Q1026
Station
Bermuda
Date/Time
2022-01-20 09:55:00
Wind direction
140°
Wind speed
02 kts
Lowest cloud amount
scattered clouds
Temperature
17°C
Dew point
13°C
Humidity
77%
QNH
1026 hPa
Weather condition
n/a

International airport serving island of Bermuda. It is located in the parish of St. George's and is 16 km east of Bermuda's capital city of Hamilton.

Climatology

Humid “subtropical” climate (Köppen climate classification Cfa) - characterized by hot, humid summers and cool winters. Significant amounts of precipitation occur in all seasons in most areas. Winter rainfall (and sometimes snowfall) is associated with large storms that the westerlies steer from west to east. Most summer rainfall occurs during thunderstorms.

Runways

Designator Length Width Surface Rops
12/30 2961 46 ASP Yes/Yes
Airport map: 
Aerial View: 

SKYbrary Partners:

Safety knowledge contributed by: